Tracking 28790 objects as of 18-Apr-2024
HD Live streaming from Space Station
objects crossing your sky now

DELTA 1 DEB

Track DELTA 1 DEB now!
10-day predictions


NORAD ID: 42085
Int'l Code: 1968-114M
Perigee: 1,246.4 km
Apogee: 1,420.1 km
Inclination: 100.9 °
Period: 112.2 minutes
Semi major axis: 7704 km
RCS: Unknown
Launch date: December 15, 1968
Source: United States (US)
Launch site: AIR FORCE WESTERN TEST RANGE (AFWTR)

Note: This is SATELLITE DEBRIS
Your satellite tracking list
Your tracking list is empty




NASA's NSSDC Master Catalog

Two Line Element Set (TLE):
1 42085U 68114M   24109.03899487  .00000646  00000-0  27993-2 0  9991
2 42085 100.9471 178.7873 0112739 229.9495 250.9018 12.83833357487723
Source of the keplerian elements: AFSPC